Eau Claire, WI

6:13 AM CDT on July 21, 2017 (GMT -0500)
Chippewa Valley Regional

Weather History for KEAU - January, 2012

Change the Weather History Date:

Thursday, January 5, 2012

  Actual Average Record
Temperature  
Mean Temperature 28 °F 15 °F  
Max Temperature 43 °F 23 °F 43 °F (2012)
Min Temperature 12 °F 6 °F -31 °F (1924)
Degree Days  
Heating Degree Days 37 50  
Month to date heating degree days 229 250  
Since 1 July heating degree days 2982 3426  
Cooling Degree Days 0 0  
Month to date cooling degree days 0 0  
Year to date cooling degree days 0 0  
Moisture  
Dew Point 22 °F    
Average Humidity 79    
Maximum Humidity 100    
Minimum Humidity 57    
Precipitation  
Precipitation 0.00 in 0.03 in 1.02 in (1946)
Month to date precipitation 0.08 0.14  
Year to date precipitation 0.08 0.14  
Snow  
Snow 0.00 in 0.30 in 8.00 in (1928)
Month to date snowfall 0.8 1.8  
Since 1 July snowfall 8.9 17.6  
Snow Depth 1.00 in    
Sea Level Pressure  
Sea Level Pressure 29.76 in    
Wind  
Wind Speed 4 mph (SW)    
Max Wind Speed 15 mph    
Max Gust Speed 21 mph    
Visibility 9 miles    
Events      
T = Trace of Precipitation, MM = Missing Value Source: NWS Daily Summary

Daily Weather History Graph

Daily Weather History Graph

Search for Another Location

Airport or City:

Trip Planner

Search our weather history database for the weather conditions in past years. The results will help you decide how hot, cold, wet, or windy it might be!

Date:

Astronomy

Jan. 05, 2012 Rise Set
Actual Time 7:43 AM CST 4:38 PM CST
Civil Twilight 7:10 AM CST 5:12 PM CST
Nautical Twilight 6:33 AM CST 5:49 PM CST
Astronomical Twilight 5:58 AM CST 6:24 PM CST
Moon 1:42 PM CST (1/5) 4:29 AM CST (1/5)
Length of Visible Light 10h 02m
Length of Day
8h 55m
Waxing Gibbous, 88% of the Moon is Illuminated
Jan 5
Waxing Gibbous
Jan 9
Full
Jan 16
Last Quarter
Jan 23
New
Jan 30
First Quarter

Hourly Weather History & Observations

Time (CST) Temp. Windchill Dew Point Humidity Pressure Visibility Wind Dir Wind Speed Gust Speed Precip Events Conditions
12:56 AM 16.0 °F - 12.9 °F 88% 29.99 in 7.0 mi Calm Calm - N/A   Clear
1:56 AM 16.0 °F - 14.0 °F 92% 29.96 in 3.0 mi Calm Calm - N/A   Clear
2:56 AM 16.0 °F - 12.9 °F 88% 29.94 in 9.0 mi Calm Calm - N/A   Clear
3:56 AM 14.0 °F - 12.2 °F 93% 29.90 in 8.0 mi Calm Calm - N/A   Clear
4:56 AM 14.0 °F - 10.9 °F 88% 29.92 in 8.0 mi Calm Calm - N/A   Clear
5:56 AM 14.0 °F - 10.9 °F 88% 29.90 in 9.0 mi Calm Calm - N/A   Clear
6:22 AM 15.8 °F - 12.2 °F 86% 29.86 in 9.0 mi Calm Calm - N/A   Scattered Clouds
6:48 AM 14.0 °F - 10.4 °F 86% 29.85 in 9.0 mi Calm Calm - N/A   Mostly Cloudy
6:56 AM 14.0 °F - 10.9 °F 88% 29.89 in 9.0 mi Calm Calm - N/A   Partly Cloudy
7:56 AM 15.1 °F - 12.0 °F 88% 29.89 in 6.0 mi Calm Calm - N/A   Clear
8:21 AM 15.8 °F - 12.2 °F 86% 29.82 in 6.0 mi Calm Calm - N/A   Scattered Clouds
8:56 AM 17.6 °F - 15.8 °F 93% 29.81 in 7.0 mi Calm Calm - N/A   Partly Cloudy
10:56 AM 28.9 °F - 25.0 °F 85% 29.81 in 8.0 mi Calm Calm - N/A   Clear
11:56 AM 34.0 °F - 28.0 °F 79% 29.75 in 10.0 mi Calm Calm - N/A   Clear
12:56 PM 39.2 °F 34.2 °F 28.4 °F 65% 29.65 in 10.0 mi SSW 6.9 mph - N/A   Clear
1:56 PM 42.1 °F 35.7 °F 28.9 °F 60% 29.66 in 10.0 mi SW 11.5 mph - N/A   Clear
2:56 PM 43.0 °F 38.2 °F 30.0 °F 60% 29.65 in 10.0 mi SW 8.1 mph - N/A   Clear
3:56 PM 42.1 °F 38.4 °F 30.0 °F 62% 29.65 in 10.0 mi SW 5.8 mph - N/A   Clear
4:56 PM 41.0 °F 35.2 °F 30.0 °F 65% 29.64 in 10.0 mi SW 9.2 mph - N/A   Clear
5:56 PM 39.9 °F 35.8 °F 30.9 °F 70% 29.62 in 10.0 mi WSW 5.8 mph - N/A   Clear
6:56 PM 39.0 °F 34.0 °F 30.0 °F 70% 29.62 in 10.0 mi SW 6.9 mph - N/A   Clear
7:56 PM 39.9 °F 34.5 °F 30.9 °F 70% 29.60 in 10.0 mi SW 8.1 mph - N/A   Clear
8:56 PM 39.9 °F 33.9 °F 32.0 °F 73% 29.61 in 10.0 mi WSW 9.2 mph - N/A   Clear
9:56 PM 41.0 °F 34.7 °F 32.0 °F 70% 29.60 in 10.0 mi SW 10.4 mph - N/A   Clear
10:56 PM 41.0 °F 35.2 °F 32.0 °F 70% 29.60 in 10.0 mi WSW 9.2 mph - N/A   Clear
11:56 PM 41.0 °F 35.2 °F 32.0 °F 70% 29.59 in 10.0 mi WSW 9.2 mph - N/A   Clear